AO-07 1 07530U 74089B 18010.88214153 -.00000028 00000-0 10133-3 0 9997 2 07530 101.6640 340.7110 0011840 280.7165 133.9025 12.53630636974888 UO-11 1 14781U 84021B 18011.19370882 .00000046 00000-0 11831-4 0 9993 2 14781 97.6710 53.9231 0007336 231.7725 128.2830 14.82972478821177 LO-19 1 20442U 90005G 18010.88792422 .00000005 00000-0 17826-4 0 9991 2 20442 098.5962 310.4733 0010659 253.4670 106.5343 14.32883868461309 HUBBLE 1 20580U 90037B 18011.57447253 .00000488 00000-0 19000-4 0 9996 2 20580 28.4705 70.3425 0002426 254.5855 223.9248 15.08960833321797 MET-2/21 1 22782U 93055A 18011.12791330 .00000029 00000-0 12370-4 0 9998 2 22782 82.5473 218.5614 0021740 205.0138 274.9177 13.83805806230455 AO-27 1 22825U 93061C 18011.77126548 .00000001 00000-0 18078-4 0 9998 2 22825 98.8423 345.2284 0009478 83.5095 276.7166 14.30018942267216 IO-26 1 22826U 93061D 18010.91487082 .00000010 00000-0 21423-4 0 9995 2 22826 098.8363 344.4160 0009989 076.6916 283.5379 14.30349521267027 FO-29 1 24278U 96046B 18011.17135911 -.00000054 00000-0 -20870-4 0 9999 2 24278 98.5314 231.4282 0350765 158.0984 203.5577 13.53080417 57001 NOAA-15 1 25338U 98030A 18010.93254585 .00000024 00000-0 28943-4 0 9998 2 25338 098.7769 027.1992 0009990 328.7092 031.3492 14.25834574022354 GO-32 1 25397U 98043D 18011.02116152 -.00000014 00000-0 13008-4 0 9991 2 25397 98.6342 314.1984 0002315 103.0755 257.0682 14.23637724 13364 ISS 1 25544U 98067A 18010.68703565 .00005051 00000-0 83015-4 0 9992 2 25544 051.6423 083.8911 0003400 359.0210 136.7765 15.54290053094024 NO-44 1 26931U 01043C 18011.18256746 -.00000049 00000-0 12836-4 0 9997 2 26931 67.0515 274.5271 0005245 276.1090 83.9414 14.30490251850096 SO-50 1 27607U 02058C 18011.02978185 -.00000010 00000-0 19197-4 0 9991 2 27607 64.5536 210.3875 0046079 7.9586 352.2237 14.75410816809772 CO-55 1 27844U 03031E 18011.69287541 .00000064 00000-0 48409-4 0 9994 2 27844 98.6886 22.6481 0010804 103.3304 256.9079 14.22087983753953 CO-57 1 27848U 03031J 18011.60882576 .00000043 00000-0 39390-4 0 9994 2 27848 98.6975 22.9081 0010662 112.5554 247.6753 14.21695544753814 RS-22 1 27939U 03042A 18011.75012626 .00000113 00000-0 28754-4 0 9994 2 27939 97.9658 155.1603 0011672 286.0091 181.0948 14.66648241763885 NOAA-18 1 28654U 05018A 18010.90783964 -.00000019 00000-0 14757-4 0 9994 2 28654 099.1646 043.0097 0014045 205.8713 154.1757 14.12363302651484 CO-58 1 28895U 05043F 18010.89037386 .00000141 00000-0 35946-4 0 9995 2 28895 097.8856 168.9308 0016389 202.5924 157.4559 14.63496500650637 Falconsat-3 1 30776U 07006E 18010.85169702 .00002017 00000-0 61940-4 0 9998 2 30776 035.4346 187.7683 0002789 028.7100 331.3779 15.33731557600148 CO-65 1 32785U 08021C 18010.83590220 .00000205 00000-0 27926-4 0 9992 2 32785 097.5541 030.4786 0012707 193.8971 166.1898 14.88043484525770 AAUSAT2 1 32788U 08021F 18011.72729010 .00000183 00000-0 22137-4 0 9999 2 32788 97.5382 44.6293 0012719 147.1456 213.0558 14.94185081526817 DO-64 1 32789U 08021G 18011.75842722 .00001380 00000-0 99546-4 0 9997 2 32789 97.5347 70.3920 0014087 110.5463 249.7277 15.05669247528241 CO-66 1 32791U 08021J 18011.58223112 .00000256 00000-0 31668-4 0 9999 2 32791 97.5472 36.1646 0013588 173.6471 186.4922 14.90442131526181 RS-30 1 32953U 08025A 18011.73851969 .00000005 00000-0 -36939-4 0 9996 2 32953 82.5041 109.9835 0019514 188.1807 171.8957 12.43080891437336 PRISM 1 33493U 09002B 18011.73561349 .00001171 00000-0 10974-3 0 9996 2 33493 98.1458 267.6940 0016545 109.8952 250.4050 14.96041744486956 NOAA-19 1 33591U 09005A 18010.92998562 .00000117 00000-0 88690-4 0 9999 2 33591 099.1222 346.0058 0014799 050.8642 309.3841 14.12244916459717 TISAT-1 1 36799U 10035E 18010.91643055 .00000419 00000-0 48774-4 0 9994 2 36799 098.0841 143.2106 0012413 011.1187 349.0302 14.90664152406529 JUGNU 1 37839U 11058B 18011.12150477 .00000298 00000-0 16891-4 0 9991 2 37839 19.9609 269.6620 0018865 315.3543 196.1881 14.12606019323135 SRMSAT 1 37841U 11058D 18010.20432550 .00000298 00000-0 18312-4 0 9997 2 37841 19.9731 321.1679 0011883 194.4399 297.4235 14.10595821322548 AO-71 1 37854U 11061E 18010.87561580 .00000625 00000-0 40986-4 0 9990 2 37854 101.7095 355.2632 0164915 179.7933 180.3375 15.05001532338163 HRBE 1 37855U 11061F 18010.89523807 .00001211 00000-0 70197-4 0 9992 2 37855 101.7214 352.9547 0177909 187.5542 172.2983 15.03972035337534 ALMASAT-1 1 38078U 12006B 18011.17871234 .00031908 39657-5 30584-3 0 9998 2 38078 69.4351 288.5317 0270244 341.6932 166.8931 15.32907204316532 HORYU-2 1 38340U 12025D 18011.62911731 .00000214 00000-0 39597-4 0 9993 2 38340 98.3749 27.9035 0011415 355.3826 4.7275 14.75481956304024 RS-40 1 38735U 12041C 18011.18608911 .00000023 00000-0 98891-4 0 9993 2 38735 82.4741 194.4981 0016308 296.5996 63.3412 12.42576175247523 BEESAT-3 1 39134U 13015E 18011.43556489 .00001001 00000-0 57312-4 0 9999 2 39134 64.8635 273.7968 0029422 230.8335 129.0178 15.18706163261093 BEESAT-2 1 39136U 13015G 18010.92225594 .00000614 00000-0 41976-4 0 9992 2 39136 064.8702 289.1750 0031194 253.5301 106.2396 15.15793466260361 ZACUBE-1 1 39417U 13066B 18011.15129671 .00000208 00000-0 32830-4 0 9993 2 39417 97.6057 48.0268 0058000 310.3541 49.2615 14.80857406223555 TRITON-1 1 39427U 13066M 18010.94509732 .00000223 00000-0 43505-4 0 9998 2 39427 097.6365 017.3551 0115165 043.7160 317.3095 14.67595170221328 GOMX-1 1 39430U 13066Q 18011.73772456 .00000242 00000-0 52387-4 0 9994 2 39430 97.6807 0.0458 0153025 104.3189 257.5057 14.59003418220344 LO-74 1 39440U 13066AA 18011.09528329 .00000224 00000-0 38425-4 0 9999 2 39440 97.6115 35.5896 0080189 346.6785 13.2307 14.75595113222757 AO-73 1 39444U 13066AE 18011.16121158 .00000247 00000-0 37183-4 0 9995 2 39444 97.6071 49.3602 0057114 306.2027 53.3913 14.81619473222406 SPROUT 1 39770U 14029E 18011.64421219 .00000508 00000-0 63444-4 0 9990 2 39770 97.8753 114.0766 0009180 12.6584 347.4868 14.86624426197107 DUCHIFAT-1 1 40021U 14033M 18011.74606861 .00000329 00000-0 39833-4 0 9991 2 40021 97.9176 290.1838 0012622 340.5055 19.5678 14.90166289193650 NANOSATCBR1 1 40024U 14033Q 18011.71079370 .00000398 00000-0 47783-4 0 9999 2 40024 97.9122 288.6875 0011954 342.6475 17.4331 14.89450273193585 EO-79 1 40025U 14033R 18011.19934664 .00000231 00000-0 30803-4 0 9999 2 40025 97.9092 286.8905 0012251 348.0923 12.0002 14.88614027193433 DTUSAT-2 1 40030U 14033W 18011.72847930 .00000247 00000-0 32792-4 0 9999 2 40030 97.9048 286.3057 0011544 341.2793 18.7997 14.88228510193464 EO-80 1 40032U 14033Y 18011.17459216 .00000261 00000-0 34349-4 0 9992 2 40032 97.9054 285.7578 0011543 343.6345 16.4497 14.88163911193375 ANTELSAT 1 40034U 14033AA 18011.65211132 .00000218 00000-0 40156-4 0 9995 2 40034 97.8325 253.7944 0058666 343.5064 16.4234 14.73844681191622 VELOX-1 1 40057U 14034E 18011.17902802 .00000276 00000-0 46436-4 0 9990 2 40057 98.1955 119.6451 0012453 110.2017 250.0544 14.77320056190464 DAURIA DX 1 1 40071U 14037C 18011.62095004 .00000086 00000-0 18490-4 0 9994 2 40071 98.3552 136.2219 0009711 100.5775 259.6529 14.81111226189826 UKUBE-1 1 40074U 14037F 18011.62926456 .00000305 00000-0 44064-4 0 9991 2 40074 98.3675 141.2132 0005911 97.1105 263.0779 14.83696943190083 HODOYOSHI-1 1 40299U 14070B 18011.74182993 .00000565 00000-0 27197-4 0 9996 2 40299 97.3895 96.2168 0014930 80.4154 39.4805 15.22686136176674 CHUBUSAT-1 1 40300U 14070C 18011.83022789 .00000559 00000-0 27906-4 0 9996 2 40300 97.3794 92.7787 0022156 90.2144 32.6460 15.21336962176502 QSAT-EOS 1 40301U 14070D 18010.79980021 .00001330 00000-0 56875-4 0 9998 2 40301 097.3730 092.4636 0028656 086.7071 061.7487 15.24224150176446 FIREBIRD FU3 1 40377U 15003B 18010.66468494 .00001636 00000-0 71305-4 0 9993 2 40377 99.1059 241.0812 0133652 34.5740 326.4089 15.16563967162445 FIREBIRD FU4 1 40378U 15003C 18011.57832477 .00001665 00000-0 72408-4 0 9998 2 40378 99.1060 242.2272 0133821 31.4503 329.4639 15.16579697162588 GRIFEX 1 40379U 15003D 18011.58699925 .00001173 00000-0 55660-4 0 9994 2 40379 99.1096 239.1154 0140453 41.7121 319.4713 15.13856525162409 NO-84 1 40654U 15025D 18011.34974734 .00006930 00000-0 12024-3 0 01907 2 40654 054.9930 023.3679 0169802 071.7807 290.1571 15.37832066031692 NO-83 1 40655U 15025E 18011.33707236 .00014504 00000-0 17865-3 0 02240 2 40655 054.9799 342.7541 0128678 095.2372 266.3370 15.51175627031899 DEORBITSAIL 1 40719U 15032E 18011.21808747 .00000355 00000-0 58521-4 0 9998 2 40719 97.9613 267.1376 0015994 189.5630 170.5277 14.76301077135015 NUDT-PHONESAT 1 40900U 15049B 18010.93782567 .00002003 00000-0 94266-4 0 9995 2 40900 097.4427 021.0750 0012682 214.0124 146.0300 15.20645572128019 XW-2A 1 40903U 15049E 18011.73019064 .00001814 00000-0 47708-4 0 9990 2 40903 97.4027 44.9247 0013069 230.5004 129.5087 15.39879030129728 XW-2C 1 40906U 15049H 18011.79172294 .00000648 00000-0 38181-4 0 9993 2 40906 97.4577 18.1984 0014319 206.6237 153.4262 15.14969348127817 XW-2D 1 40907U 15049J 18011.75890230 .00000697 00000-0 40697-4 0 9996 2 40907 97.4549 17.8849 0013728 204.3222 155.7364 15.15103938127819 LILACSAT-2 1 40908U 15049K 18010.92064682 .00000325 00000-0 21811-4 0 9994 2 40908 097.4656 016.6177 0015270 208.2272 151.8133 15.13378283127582 XW-2F 1 40910U 15049M 18011.75888413 .00001026 00000-0 56463-4 0 9995 2 40910 97.4559 18.9195 0014563 201.0838 158.9797 15.16188234127745 XW-2B 1 40911U 15049N 18011.77094269 .00000677 00000-0 39654-4 0 9990 2 40911 97.4588 18.3717 0013638 204.7477 155.3103 15.15054179127711 DCBB 1 40912U 15049P 18010.92636223 .00001049 00000-0 54237-4 0 9997 2 40912 097.4511 020.5220 0014678 193.1480 231.6279 15.18362051127808 TW-1C 1 40926U 15051B 18011.62476405 .00006788 00000-0 13790-3 0 9990 2 40926 97.2047 54.7931 0012126 124.3817 358.0347 15.46572928129099 TW-1A 1 40928U 15051D 18010.78531815 .00002540 00000-0 70496-4 0 9994 2 40928 097.2045 047.8118 0012469 161.4959 312.3190 15.37757836128583 IO-86 1 40931U 15052B 18010.61099550 .00000691 00000-0 71686-5 0 9994 2 40931 5.9956 193.7979 0013630 301.6675 58.1101 14.76561900123673 LQSat 1 40958U 15057A 18011.72580948 .00000014 00000-0 98544-5 0 9998 2 40958 97.9585 88.1781 0019405 116.1190 244.2019 14.73011245121815 AO-85 1 40967U 15058D 18011.31263187 .00000249 00000-0 46120-4 0 02059 2 40967 064.7781 307.4398 0189788 003.8031 356.4470 14.75616660030500 ATHENOXAT-1 1 41168U 15077C 18010.54289024 .00001814 00000-0 63407-4 0 9992 2 41168 14.9883 93.7443 0012069 11.8173 27.6946 15.12367763114476 ChubuSat-2 1 41338U 16012B 18010.86336197 .00000291 00000-0 16016-4 0 9992 2 41338 031.0022 233.1392 0013996 314.8791 045.0708 14.99902392104190 ChubuSat-3 1 41339U 16012C 18011.03013735 .00000263 00000-0 13803-4 0 9993 2 41339 31.0085 230.9023 0013762 323.4592 36.5106 15.00095134104201 Horyu-4 1 41340U 16012D 18010.97273208 .00000419 00000-0 25430-4 0 9992 2 41340 31.0040 227.2519 0014209 333.3828 26.6077 15.00856358104257 OUFTI-1 1 41458U 16025C 18011.73385233 .00001538 00000-0 85374-4 0 9999 2 41458 98.1592 66.0951 0169808 312.4762 46.2223 15.04145774 93911 e-st@r-II 1 41459U 16025D 18010.78340385 .00000645 00000-0 38808-4 0 9991 2 41459 098.1583 064.9905 0170793 316.1978 042.5781 15.03910386093762 AAUSAT4 1 41460U 16025E 18011.10087787 .00001221 00000-0 68347-4 0 9996 2 41460 98.1517 65.6064 0163380 312.1593 46.5886 15.05140957 93859 LO-87 1 41557U 16033B 18011.20615820 .00001153 00000-0 45011-4 0 9995 2 41557 97.4485 95.6613 0013761 359.5901 0.5325 15.27902686 90180 NuSat2 1 41558U 16033C 18011.78616613 .00001230 00000-0 48080-4 0 9995 2 41558 97.4512 96.3173 0013124 356.6300 3.4848 15.27735775 90269 Lapan A3 1 41603U 16040E 18011.74798435 .00000193 00000-0 12279-4 0 9991 2 41603 97.4346 75.9206 0015135 67.7015 49.0373 15.19496761 86323 Swayam 1 41607U 16040J 18011.12016648 .00001343 00000-0 62200-4 0 9993 2 41607 97.4353 76.1641 0015506 71.8605 288.4318 15.21732298 86211 Pratham 1 41783U 16059A 18011.78012697 .00000032 00000-0 15701-4 0 9998 2 41783 98.1408 75.6907 0032775 224.9976 134.8569 14.62893403 69092 AlSat 1N 1 41789U 16059G 18011.66364118 .00000069 00000-0 22337-4 0 9992 2 41789 98.1408 76.4842 0027332 218.0637 141.8637 14.64118276 69113 ScatSat 1 41790U 16059H 18010.72787322 .00000001 00000-0 11561-4 0 9999 2 41790 098.2836 061.1839 0017615 211.4688 148.5454 14.50856657068357 TY-1 1 41844U 16066D 18010.79001247 .00001088 00000-0 49499-4 0 9996 2 41844 97.4059 19.9020 0014263 226.9939 255.9440 15.22781258 64925 CAS-2T 1 41845U 16066E 18011.05388828 .00000062 00000-0 20349-4 0 9994 2 41845 98.7649 36.5305 0366202 351.4021 8.0997 14.37850062 61369 Pegasus-1 1 41846U 16066F 18010.85772846 .00000333 00000-0 61556-4 0 9995 2 41846 098.7689 035.9714 0368491 353.9356 005.7429 14.37235953061305 STARS-C 1 41895U 98067KR 18011.19088634 .00131753 00000-0 49107-3 0 9991 2 41895 51.6331 50.5936 0005940 21.2609 338.8641 15.87066555 60685 TO-89 1 41932U 98067KU 18011.51231842 .00016108 00000-0 14831-3 0 9992 2 41932 51.6390 62.7035 0004586 334.6455 25.4316 15.67815645 56124 AOBA-V3LOX3 1 41935U 98067KX 18010.56891437 .00023534 00000-0 20156-3 0 9999 2 41935 051.6380 066.1328 0004229 335.0432 025.0360 15.69301597056092 OSNSAT 1 41939U 98067KZ 18011.28401979 .11925403 12488-4 53988-3 0 9995 2 41939 51.6143 38.9585 0001158 231.0966 128.9959 16.43641769 55750 EO-88 1 42017U 17008BX 18010.92781447 .00001390 00000-0 60476-4 0 9992 2 42017 097.4700 076.7958 0005899 199.3732 160.7281 15.23931517050119 HAVELSAT 1 42700U 98067LH 18011.67253290 .00013497 00000-0 14628-3 0 9996 2 42700 51.6385 70.5042 0005355 21.1507 338.9708 15.63870965 37474 SOMP2 1 42701U 98067LJ 18011.59019843 .00014347 00000-0 15836-3 0 9999 2 42701 51.6382 71.4542 0005349 20.6616 339.4594 15.63337656 37446 Columbia 1 42702U 98067LK 18011.49200686 .00098337 00000-0 47858-3 0 9996 2 42702 51.6314 61.6917 0006778 14.3633 345.7561 15.81584094 37494 PHOENIX 1 42706U 98067LP 18011.57741060 .00013925 00000-0 15429-3 0 9994 2 42706 51.6385 71.3718 0001485 352.9893 7.1080 15.63276909 37366 X-CubeSat 1 42707U 98067LQ 18011.74536874 .00015829 00000-0 17018-3 0 9990 2 42707 51.6365 70.2212 0001727 351.3382 8.7583 15.63929632 37382 qbee 1 42708U 98067LR 18011.50761909 .00014163 00000-0 15488-3 0 9993 2 42708 51.6381 71.6415 0001723 351.1755 8.9210 15.63599429 37307 ZA-AeroSat 1 42713U 98067LU 18011.55299864 .00012778 00000-0 14818-3 0 9996 2 42713 51.6378 72.7043 0002277 319.0353 41.0470 15.62185536 37002 LINK 1 42714U 98067LV 18011.65310138 .00023880 00000-0 23079-3 0 9991 2 42714 51.6356 69.5927 0002745 327.7706 32.3121 15.66311651 37168 UPSat 1 42716U 98067LX 18010.77564980 .00021674 00000-0 21824-3 0 9996 2 42716 051.6377 074.2588 0003944 016.6970 343.4155 15.65343146037041 SpaceCube 1 42717U 98067LY 18011.39926406 .00013438 00000-0 14785-3 0 9998 2 42717 51.6376 72.4231 0003927 20.7166 339.3987 15.63493541 36364 Hoopoe 1 42718U 98067LZ 18011.72465911 .00016023 00000-0 16857-3 0 9990 2 42718 51.6382 70.0968 0003917 19.2841 340.8302 15.64470614 36427 Challenger 1 42721U 98067MA 18011.76200711 .00028087 00000-0 25323-3 0 9994 2 42721 51.6364 68.0676 0006370 2.7770 357.3261 15.67919193 36158 NJUST-1 1 42722U 98067MB 18011.15449928 .00012149 00000-0 14414-3 0 9994 2 42722 51.6385 75.2937 0006562 3.8351 356.2692 15.61633426 36008 UNSW-EC0 1 42723U 98067MC 18011.18446431 .00020143 00000-0 21006-3 0 9992 2 42723 51.6390 73.2482 0006223 1.4546 358.6466 15.64495636 36010 DUTHsat 1 42724U 98067MD 18011.16356604 .00029497 00000-0 27266-3 0 9998 2 42724 51.6370 71.5893 0005621 1.8390 358.2626 15.67280630 35953 LO-90 1 42725U 98067ME 18011.68456679 .00013741 00000-0 15590-3 0 9991 2 42725 51.6385 72.0856 0005671 7.2591 352.8484 15.62668493 35991 nSIGHT1 1 42726U 98067MF 18011.58328828 .00006151 00000-0 84069-4 0 9990 2 42726 51.6400 75.1733 0006033 11.9715 348.1420 15.58939436 35958 QBITO 1 42728U 98067MH 18011.17574941 .00017945 00000-0 19590-3 0 9995 2 42728 51.6401 73.9599 0003362 9.1586 350.9470 15.63428806 35736 Aalto-2 1 42729U 98067MJ 18011.74745294 .00015696 00000-0 17135-3 0 9994 2 42729 51.6385 71.0080 0003318 11.5154 348.5916 15.63543875 35834 SUSat 1 42730U 98067MK 18011.58513100 .00014421 00000-0 16102-3 0 9995 2 42730 51.6381 72.1665 0003420 8.5453 351.5599 15.63042841 35798 i-INSPIRE II 1 42731U 98067ML 18011.16152383 .00021597 00000-0 22194-3 0 9992 2 42731 51.6373 73.0653 0006265 317.5689 42.4821 15.64817671 35797 PolyITAN-2-SAU 1 42732U 98067MM 18011.73319348 .00016147 00000-0 17475-3 0 9993 2 42732 51.6380 70.8913 0006310 318.2866 41.7646 15.63727579 35878 SNUSAT-1 1 42733U 98067MN 18011.58635827 .00014567 00000-0 16255-3 0 9999 2 42733 51.6381 72.1659 0006423 320.1055 39.9467 15.63035766 35846 ExAlta-1 1 42734U 98067MP 18011.67812050 .00019548 00000-0 20117-3 0 9991 2 42734 51.6366 70.5165 0007734 342.0073 18.0648 15.64843223 35826 Aoxiang-1 1 42735U 98067MQ 18011.71852361 .00011929 00000-0 14069-3 0 9990 2 42735 51.6379 72.3010 0007098 3.0127 357.0909 15.61805544 37220 BeEagleSat 1 42736U 98067MR 18011.68550601 .00013391 00000-0 15334-3 0 9990 2 42736 51.6377 72.0789 0006968 1.4423 358.6590 15.62447722 35913 Atlantis 1 42737U 98067MS 18011.54567881 .00071319 00000-0 43006-3 0 9995 2 42737 51.6307 64.3064 0007427 359.8239 0.2757 15.76971742 35894 CAS-4B 1 42759U 17034B 18011.09521236 -.00000028 00000-0 11853-4 0 9994 2 42759 43.0174 225.5819 0008301 212.8318 288.9288 15.09161573 31712 CAS-4A 1 42761U 17034D 18011.08407862 .00000023 00000-0 14975-4 0 9996 2 42761 43.0179 225.5120 0008580 213.4162 284.2346 15.09237693 31708 UCLSat 1 42765U 17036A 18011.10626557 .00001133 00000-0 53535-4 0 9997 2 42765 97.4240 73.3356 0010371 266.3678 93.6371 15.21422893 30828 NIUSat 1 42766U 17036B 18011.14778473 .00000912 00000-0 45375-4 0 9994 2 42766 97.4243 72.9842 0014635 251.3715 108.5931 15.20047685 30672 LituanicaSAT 2 1 42768U 17036D 18011.75904032 .00001821 00000-0 85812-4 0 9995 2 42768 97.4248 73.6961 0014563 251.9716 107.9933 15.20703182 30784 Aalto 1 1 42775U 17036L 18011.67910329 .00000813 00000-0 40379-4 0 9999 2 42775 97.4238 73.6420 0012798 249.9727 110.0131 15.20457783 30719 URSA MAIOR 1 42776U 17036M 18010.75145475 .00000799 00000-0 39636-4 0 9997 2 42776 097.4243 072.7513 0012635 253.7311 106.2535 15.20518739030579 Max Valier Sat 1 42778U 17036P 18010.89451441 .00000866 00000-0 42180-4 0 9990 2 42778 097.4262 073.0612 0011202 258.7470 101.2507 15.20967626030595 Pegasus 1 42784U 17036V 18010.73070948 .00001069 00000-0 50928-4 0 9994 2 42784 097.4243 072.9276 0010876 267.7960 092.2030 15.21257310030576 NUDATSat 1 42787U 17036Y 18011.68553172 .00001623 00000-0 74816-4 0 9995 2 42787 97.4245 73.9447 0010490 263.9178 96.0863 15.21663132 30561 SUCHAI 1 1 42788U 17036Z 18011.10673616 .00001246 00000-0 58493-4 0 9993 2 42788 97.4243 73.3396 0010515 266.3689 93.6345 15.21461870 30708 SKCUBE 1 42789U 17036AA 18010.70933114 .00001154 00000-0 54417-4 0 9991 2 42789 097.4242 072.9514 0010332 267.9303 092.0750 15.21454685030565 VZLUSAT 1 1 42790U 17036AB 18010.75700410 .00001410 00000-0 65356-4 0 9998 2 42790 097.4243 073.0369 0010034 268.0460 091.9626 15.21691804030570 VENTA 1 1 42791U 17036AC 18010.76310916 .00001096 00000-0 51754-4 0 9995 2 42791 097.4242 073.0307 0009958 268.5677 091.4418 15.21525403030564 Robusta 1B 1 42792U 17036AD 18011.15260760 .00001192 00000-0 55902-4 0 9997 2 42792 97.4240 73.4214 0009913 267.4424 92.5677 15.21590042 30642 D-SAT 1 42794U 17036AF 18010.71694264 .00000338 00000-0 34720-4 0 9996 2 42794 097.6158 071.1312 0128797 086.1869 275.4065 14.90758845030262 BIRD-J 1 42820U 98067MU 18010.64733430 .00014509 00000-0 17081-3 0 9995 2 42820 051.6377 078.6461 0002898 301.3205 058.7504 15.61660940029211 BIRD-G 1 42821U 98067MV 18010.59834046 .00013831 00000-0 16467-3 0 9999 2 42821 51.6377 79.0691 0002894 304.5983 55.4737 15.61414379 29165 BIRD-M 1 42822U 98067MW 18010.65967619 .00013911 00000-0 16503-3 0 9990 2 42822 051.6378 078.7303 0002914 307.2948 052.7780 15.61502932029191 BIRD-B 1 42823U 98067MX 18010.59728665 .00014223 00000-0 16845-3 0 9996 2 42823 51.6384 79.0717 0005907 322.1243 37.9334 15.61513523 29166 BIRD-N 1 42824U 98067MY 18010.60660273 .00013977 00000-0 16634-3 0 9990 2 42824 051.6390 079.1401 0005791 322.7269 037.3322 15.61404800029180 TechnoSat 1 42829U 17042E 18011.77259911 .00000142 00000-0 19876-4 0 9993 2 42829 97.6079 279.9035 0014442 5.8689 354.2696 14.90752382 27039 Mayak 1 42830U 17042F 18011.75291529 .00000844 00000-0 90529-4 0 9997 2 42830 97.6087 279.9437 0014734 3.1202 357.0106 14.91062419 27024 OBJECT MZ 1 42910U 98067MZ 18011.18786768 .00011217 00000-0 14344-3 0 9999 2 42910 51.6373 77.7448 0006878 345.0240 15.0549 15.59744790 22848 OBJECT NA 1 42911U 98067NA 18011.75013351 .00010417 00000-0 13175-3 0 9996 2 42911 51.6384 74.7729 0006457 342.7089 17.3684 15.60134492 22915 OBJECT NB 1 42912U 98067NB 18011.70893611 .00010763 00000-0 13760-3 0 9991 2 42912 51.6380 75.2133 0005873 355.1747 4.9189 15.59809804 22924 OBJECT NC 1 42913U 98067NC 18011.76597032 .00018847 00000-0 21116-3 0 9991 2 42913 51.6373 73.3565 0005084 1.9315 358.1698 15.62714391 22914 OBJECT ND 1 42914U 98067ND 18011.65930762 .00010022 00000-0 12997-3 0 9995 2 42914 51.6387 75.6623 0005806 349.0775 11.0091 15.59520677 22907 QIKCOM-1 1 42983U 98067NF 18011.21718260 .00002652 00000-0 45702-4 0 9991 2 42983 51.6423 80.8873 0004172 348.2500 48.9570 15.55120307 11788 AO-91 1 43017U 17073E 18010.87386926 .00000730 00000-0 62297-4 0 9992 2 43017 097.6966 308.6878 0261894 063.8190 298.9700 14.77832238007879 EcAMSat 1 43019U 98067NG 18011.21125438 .00004279 00000-0 68743-4 0 9998 2 43019 51.6407 80.9293 0004935 313.4245 46.6335 15.55374471 94109 99934 1 99934U 1801D 18012.18138657 .00000000 00000-0 00000-0 0 19 2 99934 97.5671 73.8300 0006273 277.3678 311.7572 15.21737581 17 /EX